Date,TemperatureHighF,TemperatureAvgF,TemperatureLowF,DewpointHighF,DewpointAvgF,DewpointLowF,HumidityHigh,HumidityAvg,HumidityLow,PressureMaxIn,PressureMinIn,WindSpeedMaxMPH,WindSpeedAvgMPH,GustSpeedMaxMPH,PrecipitationSumIn
2013-2-1,17,13,8,11,7,1,88,76,62,30.28,29.91,7,4,15,0.00
2013-2-2,19,13,3,15,8,0,88,82,74,30.22,30.02,5,2,12,0.00
2013-2-3,19,10,-2,14,5,-4,89,81,69,30.06,29.90,7,2,13,0.00
2013-2-4,21,16,9,15,11,4,87,81,74,30.07,29.93,2,0,6,0.00
2013-2-5,26,18,5,24,14,2,93,85,67,30.01,29.83,4,2,12,0.00
2013-2-6,29,21,10,19,14,7,91,75,60,30.31,30.02,3,1,8,0.00
2013-2-7,36,29,24,27,22,16,93,73,65,30.30,29.93,6,2,13,0.01
2013-2-8,27,23,13,26,20,10,95,89,71,30.39,29.86,5,2,10,0.00
2013-2-9,31,16,-2,19,10,-5,92,78,51,30.50,30.31,4,1,9,0.00
2013-2-10,39,29,17,36,23,14,92,79,57,30.31,29.68,6,3,15,0.35
2013-2-11,43,36,31,41,31,25,94,80,68,29.84,29.53,11,7,23,0.04
2013-2-12,31,28,26,25,22,21,82,78,71,30.05,29.85,7,4,16,0.00
2013-2-13,37,29,25,27,23,21,87,79,65,29.95,29.75,4,2,10,0.00
2013-2-14,39,33,28,33,29,25,91,85,77,29.85,29.66,9,4,20,0.00
2013-2-15,30,24,19,24,16,12,83,71,58,30.15,29.86,7,4,13,0.00
2013-2-16,23,18,15,17,12,6,90,78,55,30.13,30.02,5,1,11,0.00
2013-2-17,22,14,7,11,6,2,86,70,49,30.24,30.11,4,1,11,0.00
2013-2-18,45,30,13,36,19,6,75,65,54,30.24,29.58,7,4,16,0.00
2013-2-19,46,28,16,39,23,10,91,81,69,29.92,29.38,11,8,26,0.13
2013-2-20,21,18,14,14,11,8,81,73,64,30.29,29.93,8,6,19,0.00
2013-2-21,22,19,16,17,12,10,89,77,65,30.43,30.28,6,2,12,0.00
2013-2-22,32,26,20,30,23,17,95,89,81,30.31,29.90,6,3,13,0.00
2013-2-23,32,28,24,30,23,19,91,80,68,29.93,29.88,6,4,12,0.00
2013-2-24,36,27,21,27,22,19,92,83,65,30.18,29.91,5,2,10,0.00
2013-2-25,40,30,20,26,23,18,91,75,54,30.26,30.13,3,0,7,0.01
2013-2-26,34,30,25,30,25,21,96,84,71,30.16,29.56,9,5,20,0.16
2013-2-27,35,33,31,34,31,30,96,95,91,29.58,29.49,3,1,9,0.28
2013-2-28,34,31,27,31,28,23,97,90,81,30.01,29.57,3,1,10,0.10